1274659229984,0.454628
1274659289984,0.464497
1274659349984,0.456711
1274659409984,0.458660
1274659469984,0.463907
1274659529984,0.456506
1274659589984,0.460234
1274659649984,0.465191
1274659709984,0.457348
1274659769984,0.458103
1274659829984,0.455794
1274659889984,0.460376
1274659949984,0.455032
1274660009984,0.457980
1274660069984,0.459839
1274660129984,0.461331
1274660189984,0.454735
1274660249984,0.460335
1274660309984,0.458792
1274660369984,0.457771
1274660429984,0.453919
1274660489984,0.454958
1274660549984,0.455581
1274660609984,0.461054
1274660669984,0.465778
1274660729984,0.457672
1274660789984,0.456127
1274660849984,0.456813
1274660909984,0.460885
1274660969984,0.461044
1274661029984,0.466647
1274661089984,0.463552
1274661149984,0.458818
1274661209984,0.459805
1274661269984,0.460626
1274661329984,0.464929
1274661389984,0.467293
1274661449984,0.457894
1274661509984,0.459284
1274661569984,0.458771
1274661629984,0.461085
1274661689984,0.458270
1274661749984,0.464387
1274661809984,0.459868
1274661869984,0.460014
1274661929984,0.460847
1274661989984,0.457293
1274662049984,0.462764
1274662109984,0.457906
1274662169984,0.456326
1274662229984,0.459173
1274662289984,0.455523
1274662349984,0.462980
1274662409984,0.457802
1274662469984,0.458702
1274662529984,0.461848
1274662589984,0.460237
1274662649984,0.449113
1274662709984,0.457866
1274662769984,0.456258
1274662829995,0.455624
1274662889995,0.458539
1274662949995,0.458316
1274663009995,0.454307
1274663069995,0.459289
1274663129995,0.458940
1274663189995,0.455741
1274663249995,0.455734
1274663309995,0.455967
1274663369995,0.458944
1274663429995,0.458893
1274663489995,0.450672
1274663549995,0.456604
1274663609995,0.452316
1274663669995,0.458762
1274663729995,0.456629
1274663789995,0.451180
1274663849995,0.458206
1274663909995,0.453578
1274663969995,0.460751
1274664029995,0.457711
1274664089995,0.454454
1274664149995,0.457687
1274664209995,0.454343
1274664269995,0.457523
1274664329995,0.456795
1274664389995,0.455045
1274664449995,0.461774
1274664509995,0.458697
1274664569995,0.453916
1274664629995,0.458612
1274664689995,0.452233
1274664749995,0.450224
1274664809995,0.459217
1274664869995,0.457399
1274664929995,0.453176
1274664989995,0.460848
1274665049995,0.457995
1274665109995,0.453098
1274665169995,0.454627
1274665229995,0.453739
1274665289995,0.455303
1274665349995,0.455462
1274665409995,0.452765
1274665469995,0.456535
1274665529995,0.455069
1274665589995,0.458008
1274665649995,0.455405
1274665709995,0.451184
1274665769995,0.454986
1274665829995,0.461600
1274665889995,0.458026
1274665949995,0.454237
1274666009995,0.455145
1274666069995,0.454384
1274666129995,0.452071
1274666189995,0.456928
1274666249995,0.455661
1274666309995,0.449942
1274666369995,0.450187
1274666430005,0.453965
1274666490005,0.454999
1274666550005,0.454402
1274666610005,0.453508
1274666670005,0.457199
1274666730005,0.452455
1274666790005,0.456591
1274666850005,0.452951
1274666910005,0.457884
1274666970005,0.455531
1274667030005,0.453010
1274667090005,0.453017
1274667150005,0.456594
1274667210005,0.454299
1274667270005,0.457372
1274667330005,0.454727
1274667390005,0.458110
1274667450005,0.461521
1274667510005,0.459923
1274667570005,0.456612
1274667630005,0.455950
1274667690005,0.453470
1274667750005,0.453610
1274667810005,0.453724
1274667870005,0.457827
1274667930005,0.449952
1274667990005,0.459494
1274668050005,0.454568
1274668110005,0.449233
1274668170005,0.454643
1274668230005,0.454107
1274668290005,0.453591
1274668350005,0.450512
1274668410005,0.453153
1274668470005,0.459132
1274668530005,0.455642
1274668590005,0.446653
1274668650005,0.454957
1274668710005,0.453658
1274668770005,0.453403
1274668830005,0.458619
1274668890005,0.453847
1274668950005,0.450133
1274669010005,0.459776
1274669070005,0.453293
1274669130005,0.456577
1274669190005,0.450672
1274669250005,0.453089
1274669310005,0.457478
1274669370005,0.456165
1274669430005,0.450302
1274669490005,0.451934
1274669550005,0.453573
1274669610005,0.451060
1274669670005,0.451774
1274669730005,0.453718
1274669790005,0.458217
1274669850005,0.449898
1274669910005,0.455617
1274669970005,0.450452
1274670030015,0.457877
1274670090015,0.450929
1274670150015,0.455909
1274670210015,0.456135
1274670270015,0.455815
1274670330015,0.456834
1274670390015,0.453206
1274670450015,0.453258
1274670510015,0.451517
1274670570015,0.452283
1274670630015,0.452495
1274670690015,0.450478
1274670750015,0.450348
1274670810015,0.449798
1274670870015,0.450418
1274670930015,0.451453
1274670990015,0.455464
1274671050015,0.449187
1274671110015,0.453044
1274671170015,0.453737
1274671230015,0.454625
1274671290015,0.451490
1274671350015,0.447736
1274671410015,0.453396
1274671470015,0.448898
1274671530015,0.450225
1274671590015,0.449688
1274671650015,0.450083
1274671710015,0.456863
1274671770015,0.453513
1274671830015,0.453685
1274671890015,0.451995
1274671950015,0.444539
1274672010015,0.451025
1274672070015,0.451372
1274672130015,0.457730
1274672190015,0.451608
1274672250015,0.449486
1274672310015,0.448565
1274672370015,0.453023
1274672430015,0.452391
1274672490015,0.450464
1274672550015,0.454745
1274672610015,0.452767
1274672670015,0.448675
1274672730015,0.452717
1274672790015,0.449086
1274672850015,0.452558
1274672910015,0.451689
1274672970015,0.450803
1274673030015,0.447929
1274673090015,0.450157
1274673150015,0.455827
1274673210015,0.448574
1274673270015,0.454316
1274673330015,0.451856
1274673390015,0.451624
1274673450015,0.454207
1274673510015,0.455128
1274673570015,0.455134
1274673630025,0.454136
1274673690025,0.452500
1274673750025,0.449934
1274673810025,0.451205
1274673870025,0.456901
1274673930025,0.455430
1274673990025,0.454782
1274674050025,0.456471
1274674110025,0.450085
1274674170025,0.448102
1274674230025,0.448372
1274674290025,0.455389
1274674350025,0.453420
1274674410025,0.452458
1274674470025,0.454044
1274674530025,0.456330
1274674590025,0.450523
1274674650025,0.447464
1274674710025,0.454128
1274674770025,0.450492
1274674830025,0.450641
1274674890025,0.452484
1274674950025,0.447773
1274675010025,0.453508
1274675070025,0.454549
1274675130025,0.453732
1274675190025,0.451502
1274675250025,0.457147
1274675310025,0.453391
1274675370025,0.450001
1274675430025,0.453321
1274675490025,0.456229
1274675550025,0.451202
1274675610025,0.453572
1274675670025,0.458318
1274675730025,0.453188
1274675790025,0.450191
1274675850025,0.450404
1274675910025,0.452125
1274675970025,0.452928
1274676030025,0.450187
1274676090025,0.453459
1274676150025,0.461982
1274676210025,0.453892
1274676270025,0.454551
1274676330025,0.450818
1274676390025,0.451877
1274676450025,0.458049
1274676510025,0.451188
1274676570025,0.456275
1274676630025,0.450135
1274676690025,0.449622
1274676750025,0.454016
1274676810025,0.449453
1274676870025,0.456412
1274676930025,0.452903
1274676990025,0.452572
1274677050025,0.456339
1274677110025,0.450137
1274677170025,0.449034
1274677230034,0.451083
1274677290034,0.457075
1274677350034,0.450308
1274677410034,0.446710
1274677470034,0.451861
1274677530034,0.454219
1274677590034,0.451638
1274677650034,0.451990
1274677710034,0.456345
1274677770034,0.451775
1274677830034,0.449092
1274677890034,0.450389
1274677950034,0.449119
1274678010034,0.454557
1274678070034,0.449409
1274678130034,0.455310
1274678190034,0.448761
1274678250034,0.452485
1274678310034,0.455444
1274678370034,0.453469
1274678430034,0.455981
1274678490034,0.449901
1274678550034,0.459658
1274678610034,0.455176
1274678670034,0.453553
1274678730034,0.448895
1274678790034,0.450031
1274678850034,0.448171
1274678910034,0.448819
1274678970034,0.451120
1274679030034,0.447796
1274679090034,0.455904
1274679150034,0.454165
1274679210034,0.450538
1274679270034,0.450779
1274679330034,0.449796
1274679390034,0.451608
1274679450034,0.455880
1274679510034,0.451139
1274679570034,0.449642
1274679630034,0.451252
1274679690034,0.454757
1274679750034,0.449944
1274679810034,0.453349
1274679870034,0.450412
1274679930034,0.452098
1274679990034,0.447295
1274680050034,0.451117
1274680110034,0.455199
1274680170034,0.446631
1274680230034,0.449348
1274680290034,0.449734
1274680350034,0.448771
1274680410034,0.447258
1274680470034,0.446480
1274680530034,0.451874
1274680590034,0.449772
1274680650034,0.449384
1274680710034,0.447844
1274680770034,0.451288
1274680830044,0.451851
1274680890044,0.457087
1274680950044,0.452538
1274681010044,0.450100
1274681070044,0.447988
1274681130044,0.450208
1274681190044,0.449262
1274681250044,0.455128
1274681310044,0.450646
1274681370044,0.451560
1274681430044,0.452204
1274681490044,0.449446
1274681550044,0.452108
1274681610044,0.444037
1274681670044,0.448900
1274681730044,0.446171
1274681790044,0.450274
1274681850044,0.449248
1274681910044,0.455197
1274681970044,0.451817
1274682030044,0.448866
1274682090044,0.451431
1274682150044,0.451773
1274682210044,0.453383
1274682270044,0.454343
1274682330044,0.451231
1274682390044,0.451059
1274682450044,0.453673
1274682510044,0.450530
1274682570044,0.453052
1274682630044,0.450280
1274682690044,0.451013
1274682750044,0.449627
1274682810044,0.450593
1274682870044,0.452127
1274682930044,0.450282
1274682990044,0.442506
1274683050044,0.455003
1274683110044,0.454673
1274683170044,0.449479
1274683230044,0.446867
1274683290044,0.449878
1274683350044,0.450192
1274683410044,0.444554
1274683470044,0.451373
1274683530044,0.456132
1274683590044,0.451206
1274683650044,0.451359
1274683710044,0.447635
1274683770044,0.453198
1274683830044,0.449249
1274683890044,0.448912
1274683950044,0.450580
1274684010044,0.454639
1274684070044,0.449479
1274684130044,0.448170
1274684190044,0.450962
1274684250044,0.451614
1274684310044,0.455831
1274684370044,0.452334
1274684430053,0.448872
1274684490053,0.455842
1274684550053,0.449937
1274684610053,0.451159
1274684670053,0.450222
1274684730053,0.455293
1274684790053,0.455518
1274684850053,0.452815
1274684910053,0.449032
1274684970053,0.455604
1274685030053,0.452830
1274685090053,0.450870
1274685150053,0.447588
1274685210053,0.456276
1274685270053,0.455278
1274685330053,0.452397
1274685390053,0.451235
1274685450053,0.454146
1274685510053,0.452477
1274685570053,0.459152
1274685630053,0.447849
1274685690053,0.456358
1274685750053,0.453605
1274685810053,0.457982
1274685870053,0.450599
1274685930053,0.456269
1274685990053,0.452529
1274686050053,0.453708
1274686110053,0.455242
1274686170053,0.451173
1274686230053,0.451009
1274686290053,0.448115
1274686350053,0.455174
1274686410053,0.450599
1274686470053,0.450978
1274686530053,0.453661
1274686590053,0.454334
1274686650053,0.453983
1274686710053,0.452180
1274686770053,0.456659
1274686830053,0.455606
1274686890053,0.452023
1274686950053,0.453043
1274687010053,0.453081
1274687070053,0.449004
1274687130053,0.451955
1274687190053,0.455006
1274687250053,0.450920
1274687310053,0.452098
1274687370053,0.449659
1274687430053,0.456487
1274687490053,0.447694
1274687550053,0.451942
1274687610053,0.453525
1274687670053,0.455564
1274687730053,0.451987
1274687790053,0.448171
1274687850053,0.453427
1274687910053,0.447525
1274687970053,0.457220
1274688030062,0.454797
1274688090062,0.453324
1274688150062,0.454453
1274688210062,0.457605
1274688270062,0.448700
1274688330062,0.456042
1274688390062,0.454067
1274688450062,0.455465
1274688510062,0.455936
1274688570062,0.458840
1274688630062,0.456581
1274688690062,0.453680
1274688750062,0.454214
1274688810062,0.451761
1274688870062,0.455706
1274688930062,0.458152
1274688990062,0.454094
1274689050062,0.455015
1274689110062,0.449513
1274689170062,0.456328
1274689230062,0.448217
1274689290062,0.449702
1274689350062,0.455306
1274689410062,0.450543
1274689470062,0.457485
1274689530062,0.448601
1274689590062,0.456069
1274689650062,0.449223
1274689710062,0.448332
1274689770062,0.449196
1274689830062,0.447911
1274689890062,0.452497
1274689950062,0.454961
1274690010062,0.451156
1274690070062,0.451366
1274690130062,0.450381
1274690190062,0.456777
1274690250062,0.452210
1274690310062,0.450188
1274690370062,0.451034
1274690430062,0.455850
1274690490062,0.458200
1274690550062,0.456196
1274690610062,0.451828
1274690670062,0.457103
1274690730062,0.452262
1274690790062,0.453436
1274690850062,0.457208
1274690910062,0.454431
1274690970062,0.455015
1274691030062,0.453996
1274691090062,0.455391
1274691150062,0.453499
1274691210062,0.453979
1274691270062,0.457783
1274691330062,0.452618
1274691390062,0.455604
1274691450062,0.450776
1274691510062,0.452375
1274691570062,0.450173
1274691630072,0.455338
1274691690072,0.446618
1274691750072,0.452799
1274691810072,0.455656
1274691870072,0.447824
1274691930072,0.453512
1274691990072,0.445931
1274692050072,0.454395
1274692110072,0.452008
1274692170072,0.448790
1274692230072,0.446349
1274692290072,0.449082
1274692350072,0.450880
1274692410072,0.453963
1274692470072,0.450544
1274692530072,0.456476
1274692590072,0.460477
1274692650072,0.455956
1274692710072,0.448579
1274692770072,0.450551
1274692830072,0.457732
1274692890072,0.453645
1274692950072,0.453195
1274693010072,0.457082
1274693070072,0.450097
1274693130072,0.449646
1274693190072,0.449416
1274693250072,0.455278
1274693310072,0.453481
1274693370072,0.449606
1274693430072,0.453941
1274693490072,0.454467
1274693550072,0.456965
1274693610072,0.456000
1274693670072,0.460564
1274693730072,0.453483
1274693790072,0.451520
1274693850072,0.454711
1274693910072,0.450618
1274693970072,0.444714
1274694030072,0.452044
1274694090072,0.453891
1274694150072,0.457727
1274694210072,0.449844
1274694270072,0.455417
1274694330072,0.452673
1274694390072,0.451199
1274694450072,0.448113
1274694510072,0.451723
1274694570072,0.452159
1274694630072,0.451115
1274694690072,0.448970
1274694750072,0.449145
1274694810072,0.453265
1274694870072,0.449923
1274694930072,0.457832
1274694990072,0.454741
1274695050072,0.453476
1274695110072,0.456559
1274695170072,0.450190
1274695230081,0.450430
1274695290081,0.450987
1274695350081,0.451934
1274695410081,0.450750
1274695470081,0.453867
1274695530081,0.452305
1274695590081,0.449829
1274695650081,0.453473
1274695710081,0.457951
1274695770081,0.449980
1274695830081,0.457749
1274695890081,0.458912
1274695950081,0.454880
1274696010081,0.452516
1274696070081,0.449107
1274696130081,0.447737
1274696190081,0.455072
1274696250081,0.448333
1274696310081,0.449652
1274696370081,0.452947
1274696430081,0.451597
1274696490081,0.450973
1274696550081,0.452009
1274696610081,0.450807
1274696670081,0.457387
1274696730081,0.457456
1274696790081,0.452919
1274696850081,0.450982
1274696910081,0.453433
1274696970081,0.449920
1274697030081,0.449671
1274697090081,0.454566
1274697150081,0.451591
1274697210081,0.456132
1274697270081,0.456042
1274697330081,0.456500
1274697390081,0.452983
1274697450081,0.448411
1274697510081,0.454702
1274697570081,0.454949
1274697630081,0.454613
1274697690081,0.452764
1274697750081,0.452739
1274697810081,0.451644
1274697870081,0.455522
1274697930081,0.452713
1274697990081,0.453190
1274698050081,0.456156
1274698110081,0.455994
1274698170081,0.453258
1274698230081,0.454552
1274698290081,0.451709
1274698350081,0.458417
1274698410081,0.453711
1274698470081,0.458687
1274698530081,0.453171
1274698590081,0.457239
1274698650081,0.453972
1274698710081,0.451321
1274698770081,0.455124
1274698830091,0.459220
1274698890091,0.451804
1274698950091,0.457928
1274699010091,0.451901
1274699070091,0.457325
1274699130091,0.451410
1274699190091,0.451914
1274699250091,0.449504
1274699310091,0.454251
1274699370091,0.456763
1274699430091,0.457964
1274699490091,0.456006
1274699550091,0.453605
1274699610091,0.455781
1274699670091,0.456303
1274699730091,0.455975
1274699790091,0.457265
1274699850091,0.451144
1274699910091,0.459502
1274699970091,0.456883
1274700030091,0.457476
1274700090091,0.451184
1274700150091,0.457607
1274700210091,0.459540
1274700270091,0.459866
1274700330091,0.457758
1274700390091,0.454178
1274700450091,0.458193
1274700510091,0.451039
1274700570091,0.458462
1274700630091,0.454245
1274700690091,0.459659
1274700750091,0.454625
1274700810091,0.456385
1274700870091,0.458432
1274700930091,0.455243
1274700990091,0.453499
1274701050091,0.452284
1274701110091,0.453388
1274701170091,0.454302
1274701230091,0.454001
1274701290091,0.458734
1274701350091,0.460606
1274701410091,0.454184
1274701470091,0.461826
1274701530091,0.456621
1274701590091,0.450913
1274701650091,0.458605
1274701710091,0.455362
1274701770091,0.454727
1274701830091,0.454229
1274701890091,0.454456
1274701950091,0.459193
1274702010091,0.452422
1274702070091,0.454725
1274702130091,0.455754
1274702190091,0.452963
1274702250091,0.458965
1274702310091,0.462502
1274702370091,0.462843
1274702430117,0.453550
1274702490117,0.458525
1274702550117,0.454495
1274702610117,0.459308
1274702670117,0.459053
1274702730117,0.458087
1274702790117,0.453892
1274702850117,0.457071
1274702910117,0.455835
1274702970117,0.456089
1274703030117,0.448387
1274703090117,0.455653
1274703150117,0.452084
1274703210117,0.457016
1274703270117,0.456300
1274703330117,0.452219
1274703390117,0.456596
1274703450117,0.453550
1274703510117,0.454980
1274703570117,0.453606
1274703630117,0.451629
1274703690117,0.457369
1274703750117,0.452469
1274703810117,0.456657
1274703870117,0.459652
1274703930117,0.456715
1274703990117,0.457629
1274704050117,0.452514
1274704110117,0.452522
1274704170117,0.454128
1274704230117,0.454071
1274704290117,0.453833
1274704350117,0.459589
1274704410117,0.455089
1274704470117,0.454948
1274704530117,0.451196
1274704590117,0.453885
1274704650117,0.457561
1274704710117,0.459816
1274704770117,0.454594
1274704830117,0.451627
1274704890117,0.452117
1274704950117,0.452854
1274705010117,0.455720
1274705070117,0.457449
1274705130117,0.455589
1274705190117,0.449439
1274705250117,0.452087
1274705310117,0.456240
1274705370117,0.454027
1274705430117,0.453594
1274705490117,0.452311
1274705550117,0.461129
1274705610117,0.452957
1274705670117,0.459606
1274705730117,0.453462
1274705790117,0.459930
1274705850117,0.454585
1274705910117,0.455090
1274705970117,0.451340
1274706030127,0.455944
1274706630127,0.457661
1274706690127,0.456899
1274706750127,0.458613
1274706810127,0.456943
1274706870127,0.455201
1274706930127,0.458167
1274706990127,0.458161
1274707050127,0.456828
1274707110127,0.459213
1274707170127,0.453477
1274707230127,0.459375
1274707290127,0.451257
1274707350127,0.461714
1274707410127,0.459425
1274707470127,0.451954
1274707530127,0.450952
1274707590127,0.459010
1274707650127,0.451820
1274707710127,0.457750
1274707770127,0.456635
1274707830127,0.459223
1274707890127,0.460630
1274707950127,0.457797
1274708010127,0.456943
1274708070127,0.459984
1274708130127,0.452936
1274708190127,0.457788
1274708250127,0.457840
1274708310127,0.464745
1274708370127,0.459832
1274708430127,0.454797
1274708490127,0.454296
1274708550127,0.454467
1274708610127,0.457923
1274708670127,0.459309
1274708730127,0.462230
1274708790127,0.450859
1274708850127,0.453330
1274708910127,0.458053
1274708970127,0.458967
1274709030127,0.456114
1274709090127,0.458904
1274709150127,0.460736
1274709210127,0.455833
1274709270127,0.458870
1274709330127,0.459156
1274709390127,0.455865
1274709450127,0.452894
1274709510127,0.453199
1274709570127,0.459595
1274709630136,0.456746
1274709690136,0.458351
1274709750136,0.457326
1274709810136,0.454495
1274709870136,0.455166
1274709930136,0.461931
1274709990136,0.459475
1274710050136,0.461142
1274710110136,0.457229
1274710170136,0.457957
1274710230136,0.456736
1274710290136,0.459695
1274710350136,0.459888
1274710410136,0.455377
1274710470136,0.453589
1274710530136,0.460036
1274710590136,0.453832
1274710650136,0.466943
1274710710136,0.457998
1274710770136,0.464600
1274710830136,0.459757
1274710890136,0.456047
1274710950136,0.460168
1274711010136,0.457184
1274711070136,0.461586
1274711130136,0.456427
1274711190136,0.463454
1274711250136,0.459423
1274711310136,0.461534
1274711370136,0.456046
1274711430136,0.460517
1274711490136,0.462420
1274711550136,0.460132
1274711610136,0.469122
1274711670136,0.463207
1274711730136,0.452716
1274711790136,0.457114
1274711850136,0.457755
1274711910136,0.461615
1274711970136,0.459845
1274712030136,0.456400
1274712090136,0.461390
1274712150136,0.464938
1274712210136,0.457837
1274712270136,0.460317
1274712330136,0.462719
1274712390136,0.459641
1274712450136,0.460066
1274712510136,0.461083
1274712570136,0.459308
1274712630136,0.463788
1274712690136,0.457347
1274712750136,0.468767
1274712810136,0.461221
1274712870136,0.464556
1274712930136,0.462817
1274712990136,0.458796
1274713050136,0.461071
1274713110136,0.467904
1274713170136,0.462978
1274713230145,0.461169
1274713290145,0.467199
1274713350145,0.467308
1274713410145,0.464153
1274713470145,0.458570
1274713530145,0.464733
1274713590145,0.465073
1274713650145,0.461948
1274713710145,0.465714
1274713770145,0.463434
1274713830145,0.462712
1274713890145,0.457674
1274713950145,0.458588
1274714010145,0.466730
1274714070145,0.461598
1274714130145,0.464166
1274714190145,0.465016
1274714250145,0.459413
1274714310145,0.468316
1274714370145,0.466630
1274714430145,0.461660
1274714490145,0.467034
1274714550145,0.462783
1274714610145,0.463699
1274714670145,0.471168
1274714730145,0.460278
1274714790145,0.464526
1274714850145,0.465789
1274714910145,0.466229
1274714970145,0.465574
1274715030145,0.467254
1274715090145,0.462754
1274715150145,0.464049
1274715210145,0.461055
1274715270145,0.472472
1274715330145,0.465884
1274715390145,0.464902
1274715450145,0.461469
1274715510145,0.468166
1274715570145,0.463811
1274715630145,0.466561
1274715690145,0.462310
1274715750145,0.463903
1274715810145,0.467334
1274715870145,0.464442
1274715930145,0.460645
1274715990145,0.459964
1274716050145,0.458438
1274716110145,0.465144
1274716170145,0.463357
1274716230145,0.465505
1274716290145,0.458931
1274716350145,0.463288
1274716410145,0.462630
1274716470145,0.462303
1274716530145,0.466142
1274716590145,0.464147
1274716650145,0.461048
1274716710145,0.460570
1274716770145,0.467769
1274716830154,0.461250
1274716890154,0.462058
1274716950154,0.461348
1274717010154,0.463538
1274717070154,0.463128
1274717130154,0.458688
1274717190154,0.470489
1274717250154,0.462098
1274717310154,0.461698
1274717370154,0.462493
1274717430154,0.462396
1274717490154,0.461871
1274717550154,0.464187
1274717610154,0.465920
1274717670154,0.464517
1274717730154,0.464282
1274717790154,0.460989
1274717850154,0.463011
1274717910154,0.460105
1274717970154,0.458650
1274718030154,0.463823
1274718090154,0.466289
1274718150154,0.460711
1274718210154,0.463182
1274718270154,0.458715
1274718330154,0.462454
1274718390154,0.461940
1274718450154,0.460026
1274718510154,0.461219
1274718570154,0.464731
1274718630154,0.463311
1274718690154,0.461149
1274718750154,0.464072
1274718810154,0.460251
1274718870154,0.462717
1274718930154,0.464306
1274718990154,0.461325
1274719050154,0.463119
1274719110154,0.461210
1274719170154,0.453718
1274719230154,0.464496
1274719290154,0.467476
1274719350154,0.469504
1274719410154,0.465828
1274719470154,0.464277
1274719530154,0.463088
1274719590154,0.464247
1274719650154,0.469357
1274719710154,0.468637
1274719770154,0.463912
1274719830154,0.463442
1274719890154,0.464131
1274719950154,0.469250
1274720010154,0.464033
1274720070154,0.463013
1274720130154,0.461884
1274720190154,0.467226
1274720250154,0.463019
1274720310154,0.460145
1274720370154,0.466065
1274720430164,0.463468
1274720490164,0.464149
1274720550164,0.458827
1274720610164,0.461612
1274720670164,0.462555
1274720730164,0.465544
1274720790164,0.460755
1274720850164,0.460139
1274720910164,0.462641
1274720970164,0.462729
1274721030164,0.460868
1274721090164,0.464931
1274721150164,0.466105
1274721210164,0.462358
1274721270164,0.463582
1274721330164,0.462204
1274721390164,0.456717
1274721450164,0.458722
1274721510164,0.463992
1274721570164,0.462402
1274721630164,0.462824
1274721690164,0.461884
1274721750164,0.464633
1274721810164,0.462318
1274721870164,0.466493
1274721930164,0.456323
1274721990164,0.463958
1274722050164,0.461535
1274722110164,0.460097
1274722170164,0.462076
1274722230164,0.459456
1274722290164,0.461651